JTA612 ROIG-ROAH

Flight info

Callsign JTA612
Flight time 0h 38m
Altitude 25000
Route MJC Y57 VELNO
Aircraft B738/M-SDE2E3FGHIRWXY/LB1

Departure

Time 2026-04-26 13:32
Airport New Ishigaki Airport (ROIG)

Arrival

Time 2026-04-26 14:10
Airport Naha International Airport (ROAH)
Time Latitude Longitude Altitude Speed Heading
2026-04-26 13:11 24.39176 124.24555 116 ft 0 kts 126°
2026-04-26 13:20 24.39179 124.24550 116 ft 2 kts 125°
2026-04-26 13:20 24.39188 124.24535 113 ft 2 kts 125°
2026-04-26 13:20 24.39198 124.24520 112 ft 2 kts 124°
2026-04-26 13:21 24.39207 124.24505 112 ft 2 kts 124°
2026-04-26 13:21 24.39213 124.24495 114 ft 2 kts 123°
2026-04-26 13:21 24.39225 124.24475 114 ft 2 kts 121°
2026-04-26 13:21 24.39234 124.24459 113 ft 2 kts 117°
2026-04-26 13:22 24.39241 124.24443 113 ft 2 kts 109°
2026-04-26 13:22 24.39244 124.24425 112 ft 2 kts 71°
2026-04-26 13:22 24.39238 124.24415 112 ft 1 kts 37°
2026-04-26 13:22 24.39237 124.24415 112 ft 0 kts 37°
2026-04-26 13:25 24.39245 124.24421 114 ft 4 kts 36°
2026-04-26 13:25 24.39295 124.24461 114 ft 14 kts 36°
2026-04-26 13:25 24.39383 124.24531 115 ft 16 kts 36°
2026-04-26 13:26 24.39442 124.24579 114 ft 16 kts 36°
2026-04-26 13:26 24.39535 124.24651 110 ft 17 kts 36°
2026-04-26 13:26 24.39635 124.24731 105 ft 19 kts 36°
2026-04-26 13:26 24.39740 124.24812 102 ft 18 kts 32°
2026-04-26 13:27 24.39841 124.24892 105 ft 18 kts 36°
2026-04-26 13:27 24.39938 124.24969 109 ft 17 kts 36°
2026-04-26 13:27 24.40032 124.25043 111 ft 16 kts 36°
2026-04-26 13:27 24.40123 124.25114 114 ft 16 kts 36°
2026-04-26 13:28 24.40206 124.25179 115 ft 12 kts 35°
2026-04-26 13:28 24.40256 124.25209 115 ft 7 kts 13°
2026-04-26 13:28 24.40298 124.25191 115 ft 7 kts 311°
2026-04-26 13:28 24.40313 124.25170 112 ft 0 kts 307°
2026-04-26 13:30 24.40322 124.25157 115 ft 5 kts 307°
2026-04-26 13:30 24.40353 124.25111 114 ft 8 kts 302°
2026-04-26 13:30 24.40358 124.25079 116 ft 3 kts 254°
2026-04-26 13:31 24.40340 124.25059 113 ft 4 kts 216°
2026-04-26 13:31 24.40336 124.25056 116 ft 0 kts 216°
2026-04-26 13:31 24.40256 124.24993 111 ft 43 kts 216°
2026-04-26 13:31 24.39789 124.24624 99 ft 120 kts 216°
2026-04-26 13:32 24.38949 124.23961 198 ft 170 kts 216°
2026-04-26 13:32 24.37978 124.23178 786 ft 183 kts 215°
2026-04-26 13:32 24.36917 124.22308 1487 ft 195 kts 215°
2026-04-26 13:32 24.35834 124.21442 2571 ft 192 kts 216°
2026-04-26 13:33 24.34592 124.20779 3162 ft 212 kts 188°
2026-04-26 13:33 24.33079 124.21051 3366 ft 232 kts 148°
2026-04-26 13:33 24.31973 124.22342 3666 ft 243 kts 113°
2026-04-26 13:33 24.31735 124.24160 4092 ft 246 kts 78°
2026-04-26 13:34 24.32366 124.25894 4725 ft 241 kts 57°
2026-04-26 13:34 24.33231 124.27511 5189 ft 250 kts 58°
2026-04-26 13:34 24.34068 124.29186 5692 ft 256 kts 59°
2026-04-26 13:34 24.34630 124.30343 6002 ft 264 kts 59°
2026-04-26 13:35 24.35826 124.32845 6498 ft 286 kts 60°
2026-04-26 13:35 24.36746 124.34796 7271 ft 288 kts 60°
2026-04-26 13:35 24.37656 124.36740 8066 ft 291 kts 60°
2026-04-26 13:35 24.38591 124.38746 8837 ft 297 kts 60°
2026-04-26 13:36 24.39526 124.40755 9590 ft 301 kts 60°
2026-04-26 13:36 24.40487 124.42826 10292 ft 308 kts 60°
2026-04-26 13:36 24.41497 124.45003 10510 ft 331 kts 60°
2026-04-26 13:36 24.42582 124.47341 10688 ft 354 kts 61°
2026-04-26 13:37 24.43707 124.49773 11068 ft 366 kts 61°
2026-04-26 13:37 24.44869 124.52291 11666 ft 371 kts 61°
2026-04-26 13:37 24.46038 124.54830 12340 ft 374 kts 61°
2026-04-26 13:37 24.47204 124.57364 13010 ft 377 kts 61°
2026-04-26 13:38 24.48396 124.59953 13657 ft 382 kts 61°
2026-04-26 13:38 24.49601 124.62571 14254 ft 386 kts 61°
2026-04-26 13:38 24.50819 124.65217 14874 ft 389 kts 60°
2026-04-26 13:38 24.52047 124.67888 15502 ft 392 kts 60°
2026-04-26 13:39 24.53289 124.70589 16114 ft 396 kts 60°
2026-04-26 13:39 24.54525 124.73279 16725 ft 400 kts 60°
2026-04-26 13:39 24.55788 124.76029 17335 ft 404 kts 60°
2026-04-26 13:39 24.57064 124.78809 17951 ft 408 kts 59°
2026-04-26 13:40 24.58333 124.81575 18507 ft 412 kts 59°
2026-04-26 13:40 24.59136 124.83327 18801 ft 415 kts 59°
2026-04-26 13:40 24.60444 124.86181 19282 ft 420 kts 59°
2026-04-26 13:40 24.61769 124.89073 19772 ft 424 kts 59°
2026-04-26 13:41 24.63089 124.91960 20256 ft 429 kts 59°
2026-04-26 13:41 24.64437 124.94906 20749 ft 433 kts 59°
2026-04-26 13:41 24.65797 124.97885 21225 ft 437 kts 59°
2026-04-26 13:41 24.67172 125.00897 21692 ft 442 kts 59°
2026-04-26 13:42 24.68541 125.03897 22152 ft 446 kts 59°
2026-04-26 13:42 24.69943 125.06970 22608 ft 450 kts 59°
2026-04-26 13:42 24.71349 125.10075 23087 ft 455 kts 61°
2026-04-26 13:42 24.72581 125.13325 23514 ft 462 kts 66°
2026-04-26 13:43 24.73639 125.16635 23894 ft 466 kts 68°
2026-04-26 13:43 24.74680 125.20037 24288 ft 469 kts 68°
2026-04-26 13:43 24.75754 125.23436 24700 ft 471 kts 66°
2026-04-26 13:43 24.76872 125.26843 25098 ft 473 kts 66°
2026-04-26 13:44 24.78086 125.30211 25472 ft 473 kts 59°
2026-04-26 13:44 24.79713 125.33358 25855 ft 471 kts 53°
2026-04-26 13:44 24.81452 125.36374 26238 ft 472 kts 51°
2026-04-26 13:44 24.83259 125.39410 26647 ft 474 kts 51°
2026-04-26 13:45 24.85076 125.42462 26982 ft 477 kts 51°
2026-04-26 13:45 24.86901 125.45565 27018 ft 485 kts 52°
2026-04-26 13:45 24.88726 125.48716 27032 ft 490 kts 52°
2026-04-26 13:45 24.90516 125.51850 27024 ft 488 kts 52°
2026-04-26 13:46 24.92311 125.55022 27025 ft 486 kts 53°
2026-04-26 13:46 24.94102 125.58197 27031 ft 486 kts 53°
2026-04-26 13:46 24.95886 125.61366 27034 ft 485 kts 53°
2026-04-26 13:46 24.97667 125.64527 27035 ft 485 kts 53°
2026-04-26 13:47 24.99431 125.67658 27036 ft 486 kts 53°
2026-04-26 13:47 25.01218 125.70827 27036 ft 486 kts 53°
2026-04-26 13:47 25.03012 125.74011 27035 ft 486 kts 53°
2026-04-26 13:47 25.04804 125.77193 27034 ft 487 kts 53°
2026-04-26 13:48 25.06569 125.80328 27033 ft 487 kts 53°
2026-04-26 13:48 25.08363 125.83517 27033 ft 488 kts 53°
2026-04-26 13:48 25.10151 125.86699 27032 ft 488 kts 53°
2026-04-26 13:48 25.11941 125.89886 27031 ft 488 kts 53°
2026-04-26 13:49 25.13738 125.93089 27033 ft 489 kts 53°
2026-04-26 13:49 25.15508 125.96244 27038 ft 489 kts 53°
2026-04-26 13:49 25.17301 125.99444 27029 ft 489 kts 53°
2026-04-26 13:49 25.19097 126.02650 27027 ft 490 kts 53°
2026-04-26 13:50 25.20886 126.05848 27017 ft 485 kts 53°
2026-04-26 13:50 25.22649 126.09005 27019 ft 480 kts 53°
2026-04-26 13:50 25.24385 126.12111 27034 ft 481 kts 53°
2026-04-26 13:50 25.26149 126.15265 27037 ft 483 kts 53°
2026-04-26 13:51 25.27922 126.18438 26719 ft 486 kts 53°
2026-04-26 13:51 25.29696 126.21616 26185 ft 481 kts 53°
2026-04-26 13:51 25.31443 126.24754 25636 ft 476 kts 53°
2026-04-26 13:51 25.33152 126.27825 25085 ft 471 kts 53°
2026-04-26 13:52 25.34864 126.30902 24496 ft 468 kts 53°
2026-04-26 13:52 25.36570 126.33967 23921 ft 465 kts 54°
2026-04-26 13:52 25.38261 126.37008 23287 ft 462 kts 54°
2026-04-26 13:52 25.39921 126.39994 22670 ft 458 kts 54°
2026-04-26 13:53 25.41584 126.42989 22086 ft 454 kts 54°
2026-04-26 13:53 25.43231 126.45958 21512 ft 449 kts 54°
2026-04-26 13:53 25.44862 126.48898 20957 ft 445 kts 54°
2026-04-26 13:53 25.46473 126.51805 20400 ft 440 kts 54°
2026-04-26 13:54 25.48050 126.54652 19861 ft 436 kts 54°
2026-04-26 13:54 25.49626 126.57510 19296 ft 433 kts 54°
2026-04-26 13:54 25.51188 126.60356 18741 ft 430 kts 54°
2026-04-26 13:55 25.54275 126.65990 17568 ft 423 kts 55°
2026-04-26 13:55 25.55283 126.67831 17198 ft 420 kts 55°
2026-04-26 13:55 25.58774 126.74208 15949 ft 410 kts 56°
2026-04-26 13:56 25.60247 126.76901 15419 ft 406 kts 56°
2026-04-26 13:56 25.61712 126.79579 14899 ft 403 kts 56°
2026-04-26 13:56 25.63141 126.82195 14373 ft 400 kts 56°
2026-04-26 13:56 25.64578 126.84825 13840 ft 397 kts 56°
2026-04-26 13:57 25.66009 126.87446 13267 ft 394 kts 57°
2026-04-26 13:57 25.67419 126.90032 12722 ft 390 kts 57°
2026-04-26 13:57 25.68801 126.92565 12209 ft 386 kts 57°
2026-04-26 13:57 25.70175 126.95090 11807 ft 379 kts 57°
2026-04-26 13:58 25.71530 126.97579 11324 ft 375 kts 57°
2026-04-26 13:58 25.72873 127.00046 10876 ft 371 kts 57°
2026-04-26 13:58 25.74185 127.02460 10725 ft 358 kts 57°
2026-04-26 13:58 25.75452 127.04793 10561 ft 347 kts 57°
2026-04-26 13:59 25.76678 127.07051 10408 ft 336 kts 56°
2026-04-26 13:59 25.77869 127.09244 10261 ft 326 kts 56°
2026-04-26 13:59 25.79012 127.11351 10124 ft 317 kts 56°
2026-04-26 14:00 25.82317 127.17441 9375 ft 304 kts 56°
2026-04-26 14:00 25.83411 127.19458 9016 ft 304 kts 57°
2026-04-26 14:00 25.84133 127.20789 8807 ft 303 kts 57°
2026-04-26 14:01 25.85585 127.23472 8371 ft 301 kts 57°
2026-04-26 14:01 25.86648 127.25437 8056 ft 300 kts 57°
2026-04-26 14:01 25.87722 127.27422 7746 ft 299 kts 57°
2026-04-26 14:01 25.88793 127.29401 7416 ft 297 kts 57°
2026-04-26 14:02 25.89770 127.31395 7105 ft 297 kts 68°
2026-04-26 14:02 25.90351 127.33589 6832 ft 295 kts 75°
2026-04-26 14:02 25.90842 127.35797 6531 ft 294 kts 75°
2026-04-26 14:02 25.91329 127.38004 6211 ft 292 kts 75°
2026-04-26 14:03 25.91821 127.40196 5892 ft 291 kts 75°
2026-04-26 14:03 25.92312 127.42346 5589 ft 289 kts 74°
2026-04-26 14:03 25.92812 127.44512 5294 ft 287 kts 74°
2026-04-26 14:03 25.93313 127.46664 4993 ft 285 kts 73°
2026-04-26 14:04 25.93810 127.48792 4699 ft 283 kts 73°
2026-04-26 14:04 25.94298 127.50873 4417 ft 281 kts 73°
2026-04-26 14:04 25.94788 127.52964 4125 ft 278 kts 73°
2026-04-26 14:04 25.95273 127.55039 3839 ft 276 kts 72°
2026-04-26 14:05 25.95755 127.57095 3558 ft 273 kts 73°
2026-04-26 14:05 25.96485 127.58963 3388 ft 261 kts 50°
2026-04-26 14:05 25.97775 127.60297 3266 ft 248 kts 32°
2026-04-26 14:05 25.99196 127.61334 3148 ft 240 kts 30°
2026-04-26 14:06 26.00573 127.62337 3036 ft 232 kts 31°
2026-04-26 14:06 26.01903 127.63314 2924 ft 225 kts 31°
2026-04-26 14:06 26.03179 127.64258 2845 ft 214 kts 31°
2026-04-26 14:06 26.04397 127.65126 2609 ft 206 kts 23°
2026-04-26 14:07 26.05754 127.65361 2420 ft 193 kts 355°
2026-04-26 14:07 26.07059 127.65283 2175 ft 182 kts 358°
2026-04-26 14:07 26.08287 127.65261 1971 ft 170 kts 357°
2026-04-26 14:07 26.09420 127.65207 1749 ft 161 kts 356°
2026-04-26 14:08 26.10522 127.65143 1572 ft 154 kts 356°
2026-04-26 14:08 26.11596 127.65079 1373 ft 152 kts 356°
2026-04-26 14:08 26.12644 127.65016 1152 ft 152 kts 356°
2026-04-26 14:08 26.13668 127.64956 943 ft 142 kts 356°
2026-04-26 14:09 26.14627 127.64898 743 ft 134 kts 357°
2026-04-26 14:09 26.15550 127.64844 594 ft 135 kts 357°
2026-04-26 14:09 26.16502 127.64786 414 ft 137 kts 355°
2026-04-26 14:09 26.17447 127.64714 236 ft 138 kts 355°
2026-04-26 14:10 26.18401 127.64646 57 ft 135 kts 355°
2026-04-26 14:10 26.19238 127.64604 28 ft 93 kts 357°
2026-04-26 14:10 26.19675 127.64582 27 ft 43 kts 357°
2026-04-26 14:10 26.19927 127.64569 26 ft 33 kts 357°
2026-04-26 14:11 26.20290 127.64619 27 ft 18 kts 25°
2026-04-26 14:11 26.20352 127.64654 27 ft 0 kts 27°
2026-04-26 14:12 26.20355 127.64655 27 ft 4 kts 27°
2026-04-26 14:13 26.20458 127.64714 27 ft 12 kts 27°
2026-04-26 14:13 26.20498 127.64737 27 ft 8 kts 27°
2026-04-26 14:13 26.20559 127.64749 27 ft 9 kts
2026-04-26 14:14 26.20615 127.64773 27 ft 9 kts 45°
2026-04-26 14:14 26.20632 127.64837 27 ft 9 kts 88°
2026-04-26 14:14 26.20635 127.64902 27 ft 8 kts 88°
2026-04-26 14:14 26.20632 127.64953 27 ft 4 kts 117°
2026-04-26 14:15 26.20612 127.64970 27 ft 4 kts 150°
2026-04-26 14:15 26.20590 127.64983 27 ft 4 kts 147°
2026-04-26 14:15 26.20573 127.64996 27 ft 1 kts 147°
2026-04-26 14:15 26.20566 127.65001 27 ft 1 kts 147°
2026-04-26 14:16 26.20563 127.65003 27 ft 0 kts 147°